Regional Weather Roundup
Issued by NWS

Home | Current Version | Previous Version | Graphics & Text | Print | Product List | Glossary On
Versions: 1 2 3 4 5 6 7 8 9 10 11 12 13 14 15 16 17 18 19 20 21 22 23 24 25 26 27 28 29 30 31 32 33 34 35 36 37 38 39 40 41 42 43 44 45 46 47 48 49 50
000
ASUS45 KABQ 101401
RWRNM
NEW MEXICO REGIONAL WEATHER ROUNDUP
NATIONAL WEATHER SERVICE ALBUQUERQUE NM
700 AM MST WED FEB 10 2016

NOTE: "FAIR" MEANS FEW OR NO CLOUDS BELOW 12,000 FEET AGL WITH NO
       SIGNIFICANT WEATHER OR OBSTRUCTIONS TO VISION.

      THIS PRODUCT IS RELEASED AS TWO VERSIONS.  ONE VERSION NEAR
      THE TOP OF THE HOUR CONTAINING PRELIMINARY DATA FROM ALBUQUERQUE
      AND OTHER STATIONS.  A FINAL VERSION WITH ADDITIONAL DATA IS
      ISSUED ABOUT 10 MINUTES AFTER THE HOUR.

NMZ501-503-504-510>518-101500-
NORTHWEST PLATEAU/NORTHCENTRAL MOUNTAINS

CITY           SKY/WX    TMP DP  RH WIND       PRES   REMARKS
FARMINGTON     CLOUDY    24  19  81 E6        30.44R WCI  17
SANTA FE       CLOUDY    28  18  66 N20       30.41R WCI  15
TAOS           CLOUDY    19  10  68 N6        30.46S WCI  11
ANGEL FIRE     FAIR      -4  -7  86 CALM      30.47S

$$
NMZ402-403-502-505>509-101500-
WESTCENTRAL MOUNTAINS/SOUTHWEST MOUNTAINS

CITY           SKY/WX    TMP DP  RH WIND       PRES   REMARKS
GALLUP         CLEAR     18  15  88 CALM      30.47R
GRANTS         PTCLDY    10   8  89 NW6       30.48R WCI   1
SILVER CITY      N/A     32  19  59 N10       30.42R WCI  24

$$
NMZ407-409-411-412-101500-
SOUTHERN DESERTS

CITY           SKY/WX    TMP DP  RH WIND       PRES   REMARKS
DEMING         CLEAR     28  17  63 CALM      30.39R
ALAMOGORDO     CLOUDY    30  16  55 NW3       30.40R
T OR C         CLEAR     36  18  48 NW6       30.41R WCI  31

$$
NMZ519>523-101500-
CENTRAL VALLEYS/CENTRAL HIGHLANDS

CITY           SKY/WX    TMP DP  RH WIND       PRES   REMARKS
ALBUQUERQUE    CLOUDY    32  19  58 NW6       30.43R WCI  26
DOUBLE EAGLE   CLEAR     18  12  79 CALM      30.43R
MORIARTY ARPT  FAIR      19  14  81 CALM      30.42F
CLINES CORNERS CLOUDY    29  17  61 W14       30.37S WCI  18
BELEN          FAIR      23  15  69 N8        30.44R WCI  14
SOCORRO        NOT AVBL

$$
NMZ524>526-539-540-101500-
SOUTHCENTRAL MOUNTAINS

CITY           SKY/WX    TMP DP  RH WIND       PRES   REMARKS
RUIDOSO          N/A     39  14  35 W10       30.43R WCI  32

$$
NMZ527>531-101500-
NORTHEAST HIGHLANDS/NORTHEAST PLAINS

CITY           SKY/WX    TMP DP  RH WIND       PRES   REMARKS
LAS VEGAS      CLOUDY    31  11  43 N6        30.35R WCI  25
RATON          CLOUDY    21  14  74 NE7       30.30F WCI  12
CLAYTON        CLOUDY    38  14  37 W10       30.23R WCI  31

$$
NMZ532>537-101500-
EASTCENTRAL PLAINS

CITY           SKY/WX    TMP DP  RH WIND       PRES   REMARKS
TUCUMCARI      CLOUDY    28  19  69 W8        30.26F WCI  20
CANNON AFB     NOT AVBL
CLOVIS AIRPORT CLOUDY    34  19  55 W12       30.30S WCI  25

$$
NMZ028-029-538-101500-
SOUTHEAST PLAINS

CITY           SKY/WX    TMP DP  RH WIND       PRES   REMARKS
ROSWELL        CLOUDY    27  18  69 N8        30.34S WCI  19
ARTESIA        CLOUDY    30  21  69 W9        30.35S WCI  22
CARLSBAD       CLOUDY    30  20  66 W5        30.33S WCI  25
HOBBS          CLEAR     28  21  74 W6        30.34S WCI  22


$$



USA.gov is the U.S. government's official web portal to all federal, state and local government web resources and services.